QPF
0.00 0.00 0.00 0.00 0.00 0.00 0.00 0.00 0.00 0.00 0.00 0.00 0.00 0.00 0.00 0.00 0.00 0.00 0.00 0.00 0.00 0.00 0.00 0.00 0.01 0.01 0.00 0.00 0.01 0.00 0.00 0.00 0.00 0.00 0.00 0.00 0.00 0.00 0.00 0.00 0.00 0.01 0.04 0.00 0.00 0.00 0.00 0.00 0.00
0.00 0.00 0.00 0.00 0.00 0.00 0.00 0.00 0.00 0.00 0.00 0.00 0.00 0.00 0.01 0.01 0.00 0.00 0.00 0.00 0.00 0.00 0.00 0.00 0.01 0.01 0.01 0.01 0.00 0.00 0.01 0.01 0.01 0.00 0.00 0.00 0.00 0.00 0.00 0.00 0.00 0.01 0.06 0.01 0.00 0.00 0.00 0.00 0.00
0.00 0.00 0.00 0.00 0.00 0.00 0.00 0.00 0.00 0.00 0.00 0.00 0.00 0.00 0.00 0.00 0.00 0.00 0.00 0.00 0.00 0.00 0.00 0.01 0.06 0.04 0.06 0.05 0.04 0.02 0.01 0.02 0.01 0.00 0.00 0.00 0.00 0.00 0.00 0.00 0.00 0.01 0.04 0.02 0.01 0.00 0.00 0.00 0.00
0.00 0.00 0.00 0.00 0.00 0.00 0.00 0.00 0.00 0.00 0.00 0.00 0.00 0.00 0.00 0.00 0.00 0.00 0.00 0.02 0.14 0.14 0.16 0.04 0.05 0.02 0.04 0.05 0.07 0.08 0.07 0.06 0.04 0.04 0.03 0.00 0.00 0.00 0.00 0.00 0.00 0.00 0.01 0.01 0.03 0.00 0.00 0.00 0.00
0.00 0.00 0.00 0.00 0.00 0.00 0.00 0.00 0.00 0.00 0.00 0.00 0.00 0.00 0.00 0.00 0.00 0.00 0.00 0.02 0.04 0.11 0.07 0.04 0.03 0.00 0.00 0.00 0.01 0.02 0.03 0.04 0.03 0.04 0.06 0.02 0.00 0.00 0.00 0.00 0.00 0.00 0.01 0.01 0.01 0.00 0.00 0.00 0.00
0.00 0.00 0.00 0.00 0.00 0.00 0.00 0.00 0.00 0.00 0.00 0.00 0.00 0.00 0.00 0.00 0.00 0.00 0.00 0.00 0.02 0.09 0.08 0.05 0.00 0.00 0.00 0.00 0.00 0.00 0.01 0.02 0.02 0.02 0.04 0.06 0.07 0.05 0.03 0.02 0.00 0.01 0.03 0.06 0.05 0.02 0.00 0.00 0.00
0.00 0.00 0.00 0.00 0.00 0.00 0.00 0.00 0.00 0.00 0.00 0.00 0.00 0.00 0.00 0.00 0.00 0.00 0.00 0.00 0.02 0.05 0.07 0.06 0.09 0.03 0.03 0.00 0.01 0.01 0.08 0.03 0.02 0.02 0.01 0.01 0.02 0.01 0.03 0.03 0.03 0.03 0.05 0.06 0.07 0.08 0.03 0.04 0.00
0.00 0.00 0.00 0.00 0.00 0.00 0.00 0.00 0.00 0.00 0.00 0.00 0.00 0.00 0.00 0.00 0.00 0.00 0.00 0.00 0.00 0.01 0.00 0.01 0.03 0.09 0.12 0.07 0.13 0.12 0.42 0.30 0.09 0.15 0.07 0.01 0.01 0.00 0.00 0.00 0.01 0.01 0.02 0.03 0.04 0.04 0.02 0.02 0.03
0.00 0.00 0.00 0.00 0.00 0.00 0.00 0.00 0.00 0.00 0.00 0.00 0.00 0.00 0.00 0.00 0.00 0.00 0.00 0.00 0.00 0.00 0.00 0.00 0.00 0.00 0.01 0.02 0.03 0.05 0.21 0.32 0.30 0.29 0.30 0.04 0.11 0.08 0.04 0.02 0.00 0.00 0.01 0.01 0.01 0.04 0.05 0.01 0.01
0.00 0.00 0.00 0.00 0.00 0.00 0.00 0.00 0.00 0.00 0.00 0.00 0.00 0.00 0.00 0.00 0.00 0.00 0.00 0.00 0.00 0.00 0.00 0.00 0.00 0.00 0.00 0.00 0.00 0.00 0.00 0.00 0.01 0.02 0.03 0.00 0.03 0.05 0.04 0.02 0.00 0.00 0.00 0.00 0.01 0.03 0.05 0.02 0.02
0.00 0.00 0.00 0.00 0.00 0.00 0.00 0.00 0.00 0.00 0.00 0.00 0.00 0.00 0.00 0.00 0.00 0.00 0.00 0.00 0.00 0.00 0.00 0.00 0.00 0.00 0.00 0.00 0.00 0.00 0.00 0.00 0.00 0.00 0.00 0.00 0.00 0.00 0.00 0.00 0.00 0.00 0.00 0.00 0.02 0.03 0.03 0.05 0.10
0.00 0.00 0.00 0.00 0.00 0.00 0.00 0.00 0.00 0.00 0.00 0.00 0.00 0.00 0.00 0.00 0.00 0.00 0.00 0.00 0.00 0.00 0.00 0.00 0.00 0.00 0.00 0.00 0.00 0.00 0.00 0.00 0.00 0.00 0.00 0.00 0.00 0.00 0.00 0.00 0.00 0.00 0.00 0.00 0.00 0.00 0.03 0.03 0.04
0.00 0.00 0.00 0.00 0.00 0.00 0.00 0.00 0.00 0.00 0.00 0.00 0.00 0.00 0.00 0.00 0.00 0.00 0.00 0.00 0.00 0.00 0.00 0.00 0.00 0.00 0.00 0.00 0.00 0.00 0.00 0.00 0.00 0.00 0.00 0.00 0.00 0.00 0.00 0.00 0.00 0.00 0.00 0.00 0.00 0.00 0.00 0.00 0.02
0.00 0.00 0.00 0.00 0.00 0.00 0.00 0.00 0.00 0.00 0.00 0.00 0.00 0.00 0.00 0.00 0.00 0.00 0.00 0.00 0.00 0.00 0.00 0.00 0.00 0.00 0.00 0.00 0.00 0.00 0.00 0.00 0.00 0.00 0.00 0.00 0.00 0.00 0.00 0.00 0.00 0.00 0.00 0.00 0.00 0.00 0.00 0.00 0.00
0.00 0.00 0.00 0.00 0.00 0.00 0.00 0.00 0.00 0.00 0.00 0.00 0.00 0.00 0.00 0.00 0.00 0.00 0.00 0.00 0.00 0.00 0.00 0.00 0.00 0.00 0.00 0.00 0.00 0.00 0.00 0.00 0.00 0.00 0.00 0.00 0.00 0.00 0.00 0.00 0.00 0.00 0.00 0.00 0.00 0.00 0.00 0.00 0.00
0.00 0.00 0.00 0.00 0.00 0.00 0.00 0.00 0.00 0.00 0.00 0.00 0.00 0.00 0.00 0.00 0.00 0.00 0.00 0.00 0.00 0.00 0.00 0.00 0.00 0.00 0.00 0.00 0.00 0.00 0.00 0.00 0.00 0.00 0.00 0.00 0.00 0.00 0.00 0.00 0.00 0.00 0.00 0.00 0.00 0.00 0.00 0.00 0.00
0.00 0.00 0.00 0.00 0.00 0.00 0.00 0.00 0.00 0.00 0.00 0.00 0.00 0.00 0.00 0.00 0.00 0.00 0.00 0.00 0.00 0.00 0.00 0.00 0.00 0.00 0.00 0.00 0.00 0.00 0.00 0.00 0.00 0.00 0.00 0.00 0.00 0.00 0.00 0.00 0.00 0.00 0.00 0.00 0.00 0.00 0.00 0.00 0.00
0.00 0.00 0.00 0.00 0.00 0.00 0.00 0.00 0.00 0.00 0.00 0.00 0.00 0.00 0.00 0.00 0.00 0.00 0.00 0.00 0.00 0.00 0.00 0.00 0.00 0.00 0.00 0.00 0.00 0.00 0.00 0.00 0.00 0.00 0.00 0.00 0.00 0.00 0.00 0.00 0.00 0.00 0.00 0.00 0.00 0.00 0.00 0.00 0.00
0.00 0.00 0.00 0.00 0.00 0.00 0.00 0.00 0.00 0.00 0.00 0.00 0.00 0.00 0.00 0.00 0.00 0.00 0.00 0.00 0.00 0.00 0.00 0.00 0.00 0.00 0.00 0.00 0.00 0.00 0.00 0.00 0.00 0.00 0.00 0.00 0.00 0.00 0.00 0.00 0.00 0.00 0.00 0.00 0.00 0.00 0.00 0.00 0.00
0.00 0.00 0.00 0.00 0.00 0.00 0.00 0.00 0.00 0.00 0.00 0.00 0.00 0.00 0.00 0.00 0.00 0.00 0.00 0.00 0.00 0.00 0.00 0.00 0.00 0.00 0.00 0.00 0.00 0.00 0.00 0.00 0.00 0.00 0.00 0.00 0.00 0.00 0.00 0.00 0.00 0.00 0.00 0.00 0.00 0.00 0.00 0.00 0.00
0.00 0.00 0.00 0.00 0.00 0.00 0.00 0.00 0.00 0.00 0.00 0.00 0.00 0.00 0.00 0.00 0.00 0.00 0.00 0.00 0.00 0.00 0.00 0.00 0.00 0.00 0.00 0.00 0.00 0.00 0.00 0.00 0.00 0.00 0.00 0.00 0.00 0.00 0.00 0.00 0.00 0.00 0.00 0.00 0.00 0.00 0.00 0.01 0.01
0.00 0.00 0.00 0.00 0.00 0.00 0.00 0.00 0.00 0.00 0.00 0.00 0.00 0.00 0.00 0.00 0.00 0.00 0.00 0.00 0.00 0.00 0.00 0.00 0.00 0.00 0.00 0.00 0.00 0.00 0.00 0.00 0.00 0.00 0.00 0.00 0.00 0.00 0.00 0.00 0.00 0.00 0.00 0.00 0.00 0.00 0.00 0.01 0.01
0.00 0.00 0.00 0.00 0.00 0.00 0.00 0.00 0.00 0.00 0.00 0.00 0.00 0.00 0.00 0.00 0.00 0.00 0.00 0.00 0.00 0.00 0.00 0.00 0.00 0.00 0.00 0.00 0.00 0.00 0.00 0.00 0.00 0.00 0.00 0.00 0.00 0.00 0.00 0.00 0.00 0.00 0.00 0.00 0.00 0.00 0.00 0.01 0.01
0.00 0.00 0.00 0.00 0.00 0.00 0.00 0.00 0.00 0.00 0.00 0.00 0.00 0.00 0.00 0.00 0.00 0.00 0.00 0.00 0.00 0.00 0.00 0.00 0.00 0.00 0.00 0.00 0.00 0.00 0.00 0.00 0.00 0.00 0.00 0.00 0.00 0.00 0.00 0.00 0.00 0.00 0.00 0.00 0.00 0.00 0.00 0.01 0.02
0.00 0.00 0.00 0.00 0.00 0.00 0.00 0.00 0.00 0.00 0.00 0.00 0.00 0.00 0.00 0.00 0.00 0.00 0.00 0.00 0.00 0.00 0.00 0.00 0.00 0.00 0.00 0.00 0.00 0.00 0.00 0.00 0.00 0.00 0.00 0.00 0.00 0.00 0.00 0.00 0.00 0.00 0.00 0.00 0.00 0.00 0.00 0.00 0.00
0.00 0.00 0.00 0.00 0.00 0.00 0.00 0.00 0.00 0.00 0.00 0.00 0.00 0.00 0.00 0.00 0.00 0.00 0.00 0.00 0.00 0.00 0.00 0.00 0.00 0.00 0.00 0.00 0.00 0.00 0.00 0.00 0.00 0.00 0.00 0.00 0.00 0.00 0.00 0.00 0.00 0.00 0.00 0.00 0.00 0.00 0.00 0.00 0.01
0.00 0.00 0.00 0.00 0.00 0.00 0.00 0.00 0.00 0.00 0.00 0.00 0.00 0.00 0.00 0.00 0.00 0.00 0.00 0.00 0.00 0.00 0.00 0.00 0.00 0.00 0.00 0.00 0.00 0.00 0.00 0.00 0.00 0.00 0.00 0.00 0.00 0.00 0.00 0.00 0.00 0.00 0.00 0.00 0.00 0.00 0.00 0.00 0.01
0.00 0.00 0.00 0.00 0.00 0.00 0.00 0.00 0.00 0.00 0.00 0.00 0.00 0.00 0.00 0.00 0.00 0.00 0.00 0.00 0.00 0.00 0.00 0.00 0.00 0.00 0.00 0.00 0.00 0.00 0.00 0.00 0.00 0.00 0.00 0.00 0.00 0.00 0.00 0.00 0.00 0.00 0.00 0.00 0.00 0.00 0.00 0.00 0.00
0.00 0.00 0.00 0.00 0.00 0.00 0.00 0.00 0.00 0.00 0.00 0.00 0.00 0.00 0.00 0.00 0.00 0.00 0.00 0.00 0.00 0.00 0.00 0.00 0.00 0.00 0.00 0.00 0.00 0.00 0.00 0.00 0.00 0.00 0.00 0.00 0.00 0.00 0.00 0.00 0.00 0.00 0.00 0.00 0.00 0.00 0.00 0.00 0.00
0.00 0.00 0.00 0.00 0.00 0.00 0.00 0.00 0.00 0.00 0.00 0.00 0.00 0.00 0.00 0.00 0.00 0.00 0.00 0.00 0.00 0.00 0.00 0.00 0.00 0.00 0.00 0.00 0.00 0.00 0.00 0.00 0.00 0.00 0.00 0.00 0.00 0.00 0.00 0.00 0.00 0.00 0.00 0.00 0.00 0.00 0.00 0.00 0.00
MSLP
1014.07 1013.88 1013.52 1012.81 1011.98 1010.28 1009.16 1009.32 1009.79 1009.66 1009.82 1010.33 1010.45 1010.18 1009.98 1010.63 1010.62 1011.89 1013.30 1012.93 1012.83 1012.93 1013.10 1013.89 1014.34 1014.54 1014.74 1014.96 1015.13 1015.22 1015.34 1015.44 1015.50 1015.57 1015.68 1015.77 1015.82 1015.94 1016.08 1016.20 1016.31 1016.29 1016.34 1016.50 1016.69 1016.79 1016.99 1017.04 1017.14
1013.96 1013.76 1013.05 1012.00 1010.87 1009.39 1008.73 1009.82 1009.85 1010.17 1010.70 1010.97 1011.03 1011.04 1011.13 1011.68 1012.35 1012.90 1013.30 1013.32 1013.34 1013.17 1013.20 1013.54 1014.50 1014.72 1014.87 1015.07 1015.22 1015.34 1015.48 1015.62 1015.70 1015.78 1015.87 1015.97 1016.03 1016.07 1016.12 1016.25 1016.28 1016.40 1016.52 1016.55 1016.68 1016.96 1017.20 1017.32 1017.35
1014.15 1013.83 1012.30 1011.23 1010.43 1009.50 1009.38 1010.30 1010.53 1011.13 1011.48 1011.42 1011.41 1011.82 1012.24 1012.71 1013.33 1013.81 1013.99 1013.66 1013.50 1013.63 1013.51 1013.88 1014.66 1014.84 1015.00 1015.22 1015.26 1015.45 1015.52 1015.58 1015.83 1015.89 1016.04 1016.07 1016.10 1016.18 1016.25 1016.26 1016.29 1016.44 1016.64 1016.75 1016.88 1017.09 1017.29 1017.45 1017.53
1013.66 1013.08 1012.80 1011.30 1010.02 1010.28 1010.48 1010.75 1011.25 1011.54 1011.98 1012.03 1011.87 1012.20 1013.23 1014.13 1014.37 1014.69 1014.25 1013.67 1013.47 1013.91 1014.13 1014.58 1014.81 1015.03 1015.18 1015.37 1015.50 1015.59 1015.61 1015.68 1015.85 1016.00 1016.10 1016.25 1016.22 1016.21 1016.27 1016.40 1016.47 1016.58 1016.69 1016.78 1017.04 1017.26 1017.35 1017.51 1017.60
1013.70 1012.73 1011.67 1011.17 1010.74 1010.81 1010.93 1011.38 1011.59 1011.51 1011.82 1012.11 1012.27 1012.52 1013.39 1014.34 1014.98 1014.98 1014.50 1014.43 1014.37 1014.57 1014.55 1014.85 1015.30 1015.29 1015.36 1015.48 1015.57 1015.74 1015.68 1015.73 1015.98 1016.10 1016.29 1016.35 1016.36 1016.36 1016.39 1016.49 1016.58 1016.64 1016.72 1016.93 1017.10 1017.25 1017.45 1017.61 1017.64
1013.02 1012.71 1011.49 1010.71 1010.79 1011.20 1011.51 1011.74 1011.62 1011.73 1012.03 1012.43 1012.55 1012.72 1013.64 1014.58 1014.95 1015.21 1015.01 1014.99 1015.31 1015.44 1015.72 1015.96 1015.86 1015.91 1015.76 1015.86 1015.93 1015.85 1015.77 1015.75 1015.89 1016.07 1016.25 1016.41 1016.49 1016.45 1016.42 1016.62 1016.71 1016.82 1016.80 1016.90 1017.13 1017.32 1017.46 1017.64 1017.71
1013.04 1012.49 1011.57 1011.49 1011.34 1011.48 1011.75 1012.28 1012.05 1011.84 1012.15 1012.28 1012.78 1012.72 1013.94 1014.53 1015.15 1015.44 1015.70 1015.38 1015.85 1015.98 1015.91 1016.31 1016.27 1016.20 1016.14 1016.16 1016.19 1016.06 1015.90 1015.74 1015.83 1015.92 1016.12 1016.32 1016.46 1016.53 1016.53 1016.63 1016.74 1016.85 1016.94 1016.97 1017.01 1017.28 1017.40 1017.55 1017.70
1013.63 1012.93 1012.30 1012.00 1011.64 1011.85 1012.50 1012.68 1012.83 1012.52 1012.61 1013.30 1013.20 1012.84 1013.57 1014.49 1015.34 1015.59 1015.72 1015.97 1016.08 1016.49 1016.58 1016.48 1016.42 1016.30 1016.41 1016.29 1016.69 1016.46 1016.33 1015.90 1016.14 1016.16 1016.23 1016.33 1016.44 1016.55 1016.57 1016.67 1016.73 1016.95 1016.95 1017.09 1017.11 1017.15 1017.29 1017.44 1017.67
1014.15 1013.23 1012.39 1012.40 1012.50 1012.44 1013.04 1012.94 1013.25 1013.42 1013.11 1013.52 1013.63 1013.48 1013.92 1014.61 1015.31 1015.50 1015.75 1016.07 1016.28 1016.55 1016.62 1016.64 1016.62 1016.58 1016.59 1016.55 1016.84 1016.84 1016.75 1016.26 1016.31 1016.32 1016.41 1016.18 1016.24 1016.20 1016.33 1016.85 1016.99 1017.04 1017.05 1017.00 1016.95 1017.13 1017.27 1017.36 1017.53
1013.85 1013.43 1013.12 1013.50 1013.35 1013.18 1013.36 1013.32 1013.21 1013.27 1013.26 1013.50 1013.97 1014.36 1014.54 1014.83 1015.06 1015.33 1015.56 1015.95 1016.27 1016.52 1016.76 1016.73 1016.83 1016.81 1016.71 1016.68 1016.74 1016.63 1016.55 1016.43 1016.42 1016.33 1016.38 1016.48 1016.50 1016.54 1016.51 1016.74 1016.97 1017.08 1017.05 1016.94 1016.85 1016.85 1017.03 1017.24 1016.87
1014.24 1013.59 1013.83 1013.88 1014.05 1014.03 1013.69 1013.55 1013.48 1013.14 1012.91 1012.93 1013.31 1014.04 1014.56 1014.79 1015.13 1015.42 1015.82 1016.12 1016.50 1016.82 1016.98 1017.06 1017.09 1017.08 1016.87 1017.03 1016.89 1016.65 1016.66 1016.72 1016.83 1016.89 1016.78 1016.63 1016.50 1016.54 1016.54 1016.48 1016.58 1016.69 1016.96 1016.48 1016.59 1016.37 1016.46 1016.47 1016.79
1014.59 1014.23 1014.21 1014.23 1014.54 1014.48 1014.00 1013.84 1013.37 1013.30 1012.88 1013.34 1013.44 1014.05 1014.57 1014.90 1015.23 1015.54 1015.95 1016.43 1016.79 1017.12 1017.39 1017.42 1017.38 1017.29 1017.27 1017.16 1017.13 1017.01 1017.00 1016.99 1016.97 1017.14 1017.23 1017.07 1016.78 1016.74 1016.78 1016.79 1016.88 1016.92 1016.91 1016.73 1016.82 1016.71 1016.49 1016.48 1016.38
1014.46 1014.46 1014.58 1014.58 1014.68 1014.68 1014.63 1014.08 1013.63 1013.27 1013.37 1013.62 1013.80 1014.47 1014.66 1014.96 1015.49 1015.90 1016.22 1016.70 1017.05 1017.41 1017.67 1017.76 1017.65 1017.68 1017.66 1017.55 1017.53 1017.41 1017.31 1017.31 1017.33 1017.48 1017.48 1017.41 1017.28 1017.15 1017.05 1016.99 1016.97 1016.90 1016.85 1016.74 1016.65 1016.53 1016.59 1016.75 1016.64
1014.77 1014.78 1014.63 1014.78 1014.65 1014.67 1014.61 1014.23 1014.23 1013.38 1013.84 1013.94 1014.14 1014.44 1014.85 1015.14 1015.61 1016.17 1016.43 1016.73 1017.15 1017.55 1017.80 1018.03 1018.03 1018.01 1018.03 1017.94 1017.98 1017.86 1017.74 1017.75 1017.81 1017.78 1017.78 1017.61 1017.56 1017.48 1017.43 1017.29 1017.19 1017.08 1016.95 1016.78 1016.71 1016.57 1016.49 1016.76 1016.98
1015.02 1014.71 1014.52 1014.44 1014.62 1014.49 1014.73 1014.10 1013.65 1013.58 1013.76 1013.93 1014.19 1014.57 1015.12 1015.37 1015.96 1016.15 1016.47 1016.79 1017.15 1017.61 1018.00 1018.15 1018.36 1018.47 1018.34 1018.28 1018.25 1018.24 1018.30 1018.03 1017.95 1018.10 1017.96 1018.04 1017.91 1017.80 1017.69 1017.45 1017.20 1017.18 1017.05 1017.06 1016.74 1016.70 1016.71 1016.72 1016.76
1014.88 1014.83 1014.18 1014.48 1014.59 1014.84 1014.77 1013.22 1013.43 1013.87 1013.73 1013.67 1014.03 1014.36 1015.08 1015.49 1015.87 1016.33 1016.84 1017.18 1017.47 1017.83 1018.11 1018.43 1018.57 1018.67 1018.58 1018.57 1018.53 1018.44 1018.43 1018.28 1018.29 1018.25 1018.23 1018.22 1018.14 1018.07 1017.80 1017.59 1017.26 1017.18 1017.05 1017.00 1016.93 1016.77 1016.69 1016.86 1016.72
1014.78 1014.09 1014.20 1014.43 1014.78 1014.59 1014.61 1013.32 1013.74 1013.94 1014.05 1013.50 1013.93 1014.43 1014.70 1015.36 1016.07 1016.55 1017.02 1017.42 1017.71 1017.98 1018.35 1018.66 1018.87 1018.90 1018.95 1018.93 1018.81 1018.71 1018.71 1018.57 1018.43 1018.29 1018.29 1018.23 1018.13 1018.02 1017.80 1017.61 1017.43 1017.29 1017.06 1017.25 1017.32 1017.19 1017.07 1016.61 1016.61
1014.16 1014.14 1014.19 1014.29 1014.91 1014.70 1014.22 1013.48 1013.21 1013.72 1013.82 1013.73 1013.59 1013.97 1014.76 1015.06 1015.63 1016.43 1017.18 1017.62 1018.02 1018.36 1018.67 1018.89 1019.12 1019.28 1019.28 1019.14 1018.98 1018.87 1018.76 1018.78 1018.64 1018.47 1018.31 1018.25 1018.07 1018.03 1017.82 1017.58 1017.43 1017.28 1017.03 1017.23 1017.52 1017.40 1017.33 1016.98 1016.81
1014.84 1014.54 1014.35 1014.42 1014.88 1014.75 1013.83 1013.34 1012.85 1013.08 1013.42 1013.20 1013.46 1013.88 1014.26 1015.07 1015.87 1016.40 1017.12 1017.79 1018.22 1018.57 1018.86 1019.25 1019.27 1019.47 1019.39 1019.25 1019.17 1019.02 1019.07 1018.99 1018.77 1018.71 1018.66 1018.41 1018.23 1018.06 1017.85 1017.58 1017.37 1017.12 1016.96 1016.98 1017.33 1017.32 1017.35 1017.14 1017.09
1015.53 1015.06 1014.65 1014.73 1015.05 1015.00 1013.71 1012.88 1012.35 1012.30 1012.34 1012.47 1012.76 1013.60 1014.21 1014.89 1015.92 1016.77 1017.19 1017.68 1018.26 1018.67 1019.02 1019.40 1019.60 1019.75 1019.73 1019.70 1019.70 1019.54 1019.36 1019.17 1019.14 1018.95 1018.65 1018.50 1018.28 1018.11 1017.86 1017.60 1017.38 1017.13 1016.95 1016.78 1016.79 1016.97 1017.02 1016.93 1016.83
1015.81 1015.22 1015.04 1015.20 1015.19 1014.86 1014.29 1012.18 1011.47 1011.54 1011.83 1012.24 1012.47 1012.93 1013.83 1014.73 1015.45 1016.28 1017.32 1017.74 1018.33 1018.80 1019.22 1019.46 1019.82 1019.94 1019.95 1019.91 1019.87 1019.55 1019.13 1018.99 1018.85 1018.83 1018.64 1018.52 1018.28 1018.04 1017.80 1017.65 1017.40 1017.19 1017.03 1016.72 1016.59 1016.49 1016.48 1016.40 1016.42
1016.39 1016.14 1016.03 1015.81 1015.67 1014.84 1014.67 1012.20 1011.01 1011.00 1011.42 1011.79 1012.12 1012.60 1013.23 1014.25 1015.35 1016.26 1016.88 1017.84 1018.39 1018.94 1019.48 1019.73 1019.99 1020.03 1020.13 1020.15 1019.99 1019.72 1019.52 1019.31 1019.21 1018.98 1018.74 1018.45 1018.23 1018.11 1017.89 1017.69 1017.38 1017.15 1016.98 1016.77 1016.47 1016.26 1016.04 1015.99 1015.82
1016.77 1016.75 1016.66 1016.50 1016.03 1015.61 1014.63 1013.75 1010.73 1011.17 1010.82 1010.91 1011.44 1012.07 1012.86 1013.77 1014.78 1015.88 1016.95 1017.79 1018.51 1019.30 1019.62 1019.83 1019.93 1020.09 1020.23 1020.28 1020.35 1020.12 1019.83 1019.62 1019.35 1019.00 1018.73 1018.40 1018.05 1018.00 1017.74 1017.61 1017.40 1017.09 1016.79 1016.59 1016.42 1016.15 1015.90 1015.60 1015.48
1017.74 1017.26 1017.25 1017.29 1016.71 1015.57 1013.75 1013.23 1010.70 1010.62 1010.51 1011.33 1012.02 1012.16 1012.92 1013.45 1014.41 1015.59 1016.97 1018.05 1018.91 1019.44 1019.75 1019.88 1019.91 1020.12 1020.43 1020.53 1020.45 1020.39 1020.17 1019.83 1019.39 1019.04 1018.69 1018.27 1018.03 1017.86 1017.67 1017.49 1017.22 1017.05 1016.70 1016.47 1016.24 1015.95 1015.67 1015.42 1015.15
1017.84 1017.17 1017.27 1017.29 1016.73 1014.91 1014.67 1013.88 1011.04 1011.40 1011.81 1012.28 1012.58 1012.69 1013.24 1013.72 1014.29 1015.54 1016.71 1017.75 1018.67 1019.33 1019.75 1019.92 1020.09 1020.34 1020.54 1020.60 1020.49 1020.35 1020.23 1019.86 1019.47 1019.09 1018.58 1018.27 1017.86 1017.64 1017.57 1017.50 1017.23 1016.98 1016.59 1016.25 1016.03 1015.79 1015.44 1015.11 1014.89
1017.43 1017.13 1016.82 1016.50 1016.26 1015.23 1014.98 1013.06 1011.64 1012.48 1012.85 1012.87 1013.19 1013.34 1013.66 1014.13 1014.71 1015.50 1016.51 1017.55 1018.42 1019.11 1019.70 1020.01 1020.27 1020.37 1020.48 1020.46 1020.48 1020.31 1020.14 1019.77 1019.56 1019.26 1019.02 1018.61 1018.10 1017.66 1017.31 1017.18 1017.10 1017.03 1016.65 1016.29 1015.91 1015.59 1015.31 1015.02 1014.71
1017.63 1017.58 1017.34 1016.98 1016.99 1016.09 1013.53 1012.82 1012.22 1012.92 1013.02 1013.47 1013.84 1014.14 1014.46 1014.87 1015.43 1016.24 1017.15 1017.77 1018.41 1019.08 1019.74 1019.96 1020.08 1020.31 1020.38 1020.48 1020.40 1020.16 1019.93 1019.64 1019.55 1019.25 1018.85 1018.58 1018.09 1017.54 1017.17 1016.89 1016.59 1016.26 1016.15 1016.11 1015.73 1015.26 1014.94 1014.68 1014.52
1017.56 1017.58 1017.52 1016.94 1016.57 1015.27 1013.67 1013.14 1012.25 1012.82 1012.98 1013.64 1014.14 1014.64 1015.13 1015.71 1016.27 1016.83 1017.39 1018.14 1018.84 1019.23 1019.64 1020.06 1020.15 1020.13 1020.29 1020.39 1020.32 1020.17 1019.88 1019.47 1019.23 1018.94 1018.60 1018.23 1017.89 1017.55 1017.14 1016.73 1016.31 1015.92 1015.74 1015.61 1015.38 1015.24 1014.79 1014.22 1013.96
1018.06 1017.68 1017.47 1017.05 1016.42 1015.72 1014.14 1012.96 1013.12 1013.64 1013.53 1013.78 1014.17 1014.79 1015.50 1016.00 1016.58 1017.15 1017.78 1018.43 1019.06 1019.61 1019.71 1019.73 1020.08 1020.27 1020.14 1020.20 1020.17 1020.00 1019.70 1019.45 1019.26 1018.90 1018.39 1018.14 1017.89 1017.49 1017.07 1016.70 1016.30 1015.92 1015.62 1015.31 1015.00 1014.61 1014.45 1014.24 1013.65
1017.88 1017.36 1017.02 1016.48 1016.51 1016.45 1015.41 1013.61 1013.43 1013.91 1013.91 1014.07 1014.27 1015.08 1015.78 1016.16 1016.85 1017.40 1018.06 1018.63 1019.03 1019.32 1019.64 1019.92 1020.04 1020.26 1020.37 1020.25 1020.04 1019.81 1019.58 1019.49 1019.27 1018.87 1018.42 1018.24 1017.90 1017.43 1017.10 1016.73 1016.24 1015.80 1015.45 1015.04 1014.66 1014.33 1013.93 1013.50 1013.20
Thickness
5701 5701 5704 5703 5691 5698 5697 5697 5698 5698 5700 5706 5710 5713 5717 5714 5715 5703 5712 5720 5721 5720 5720 5715 5712 5711 5711 5710 5710 5709 5708 5707 5707 5706 5706 5705 5706 5705 5704 5703 5702 5702 5701 5700 5698 5697 5695 5695 5695
5699 5700 5702 5698 5689 5690 5703 5694 5692 5697 5698 5701 5702 5702 5701 5694 5704 5704 5705 5712 5713 5713 5713 5712 5706 5705 5705 5705 5704 5704 5703 5702 5701 5701 5700 5700 5700 5701 5701 5700 5699 5698 5698 5697 5696 5694 5692 5691 5691
5696 5697 5696 5693 5687 5688 5689 5687 5689 5689 5692 5691 5692 5695 5689 5686 5692 5692 5698 5705 5706 5703 5704 5703 5699 5698 5698 5697 5698 5698 5698 5698 5696 5696 5695 5696 5696 5695 5696 5696 5697 5696 5694 5694 5692 5690 5689 5687 5687
5696 5696 5690 5687 5687 5686 5681 5684 5682 5680 5681 5685 5687 5680 5680 5679 5679 5681 5690 5699 5699 5695 5692 5693 5691 5692 5690 5690 5690 5690 5691 5691 5691 5690 5690 5690 5691 5692 5692 5692 5692 5692 5691 5691 5689 5687 5686 5685 5683
5692 5691 5681 5675 5675 5678 5681 5678 5677 5676 5676 5676 5678 5671 5670 5673 5673 5675 5682 5685 5686 5684 5684 5684 5682 5683 5684 5683 5683 5683 5685 5685 5684 5683 5682 5684 5685 5686 5687 5687 5687 5687 5687 5686 5685 5684 5682 5681 5681
5685 5684 5676 5674 5672 5671 5671 5672 5673 5671 5669 5667 5668 5669 5665 5668 5667 5668 5673 5675 5673 5673 5673 5671 5673 5674 5677 5677 5677 5678 5679 5680 5680 5679 5678 5678 5679 5681 5683 5682 5682 5682 5682 5682 5680 5679 5679 5678 5678
5679 5675 5672 5664 5662 5660 5662 5664 5662 5665 5663 5663 5665 5661 5659 5661 5661 5661 5662 5668 5664 5664 5665 5665 5666 5667 5670 5670 5671 5673 5674 5675 5675 5677 5676 5675 5674 5676 5677 5677 5677 5677 5677 5677 5678 5676 5676 5675 5675
5674 5671 5659 5660 5657 5651 5652 5651 5651 5655 5654 5655 5659 5654 5650 5655 5654 5655 5656 5657 5658 5656 5657 5659 5659 5661 5662 5665 5663 5665 5666 5668 5666 5668 5667 5669 5670 5671 5671 5672 5673 5670 5671 5671 5673 5673 5673 5673 5672
5667 5661 5657 5653 5644 5646 5644 5642 5643 5645 5646 5645 5648 5653 5653 5652 5649 5650 5649 5650 5650 5650 5651 5653 5653 5655 5656 5659 5657 5658 5658 5659 5661 5661 5662 5664 5666 5666 5667 5666 5666 5665 5666 5667 5669 5669 5669 5669 5669
5663 5655 5653 5646 5643 5639 5638 5637 5639 5638 5638 5637 5637 5640 5644 5645 5645 5644 5645 5643 5644 5644 5645 5647 5647 5649 5651 5652 5653 5654 5655 5655 5656 5658 5659 5659 5659 5659 5661 5661 5662 5661 5662 5663 5664 5665 5665 5665 5667
5653 5652 5646 5643 5636 5632 5632 5631 5635 5635 5632 5640 5638 5637 5638 5640 5640 5639 5638 5638 5637 5638 5639 5640 5641 5642 5645 5645 5647 5650 5650 5649 5648 5649 5651 5652 5654 5655 5655 5656 5656 5657 5657 5660 5660 5662 5662 5664 5662
5645 5646 5642 5638 5629 5625 5627 5628 5630 5631 5637 5636 5638 5636 5633 5633 5634 5634 5633 5631 5631 5631 5630 5632 5634 5636 5637 5639 5640 5642 5642 5642 5643 5642 5643 5644 5648 5648 5648 5648 5649 5650 5651 5653 5653 5654 5656 5657 5658
5644 5640 5636 5633 5625 5621 5619 5622 5626 5628 5632 5632 5632 5628 5629 5629 5627 5627 5628 5626 5625 5624 5624 5625 5627 5628 5629 5631 5632 5634 5635 5635 5636 5635 5636 5637 5638 5640 5641 5642 5643 5644 5645 5647 5647 5649 5650 5649 5650
5640 5633 5633 5627 5625 5619 5614 5618 5616 5627 5624 5624 5624 5625 5624 5625 5623 5620 5621 5621 5620 5619 5619 5619 5620 5621 5621 5623 5624 5626 5628 5628 5628 5629 5630 5631 5632 5633 5634 5635 5637 5638 5639 5641 5642 5643 5644 5643 5642
5633 5629 5628 5627 5623 5619 5612 5614 5616 5624 5623 5620 5621 5620 5617 5619 5617 5618 5618 5618 5617 5615 5614 5614 5614 5614 5616 5617 5618 5619 5619 5622 5623 5622 5624 5624 5626 5626 5627 5630 5632 5633 5634 5635 5636 5637 5638 5638 5638
5628 5624 5626 5621 5618 5613 5610 5623 5619 5618 5620 5621 5621 5620 5616 5616 5616 5615 5613 5612 5612 5611 5609 5608 5608 5608 5610 5611 5611 5613 5614 5616 5616 5617 5617 5618 5619 5620 5622 5624 5626 5628 5629 5629 5630 5632 5633 5631 5633
5624 5624 5620 5618 5613 5613 5607 5619 5613 5614 5614 5622 5620 5617 5618 5616 5612 5610 5609 5608 5607 5606 5604 5602 5602 5602 5602 5603 5605 5606 5607 5608 5609 5611 5611 5612 5613 5614 5615 5617 5618 5619 5621 5620 5620 5621 5622 5626 5626
5627 5620 5613 5613 5609 5606 5607 5611 5618 5612 5612 5616 5621 5621 5613 5615 5613 5610 5605 5603 5601 5599 5597 5597 5595 5594 5595 5596 5598 5599 5600 5601 5602 5604 5605 5606 5607 5608 5609 5610 5611 5612 5614 5613 5610 5611 5611 5614 5615
5617 5614 5611 5611 5604 5602 5610 5608 5616 5615 5610 5615 5617 5616 5615 5610 5609 5607 5602 5598 5595 5593 5592 5589 5589 5588 5589 5590 5591 5593 5592 5593 5595 5595 5596 5597 5599 5600 5601 5603 5604 5606 5607 5606 5603 5602 5602 5604 5604
5605 5606 5607 5606 5598 5596 5608 5608 5617 5618 5616 5619 5618 5613 5610 5608 5601 5597 5597 5595 5591 5587 5586 5583 5582 5581 5582 5582 5582 5584 5584 5585 5585 5587 5588 5589 5590 5592 5593 5595 5596 5597 5598 5599 5598 5596 5595 5595 5596
5603 5603 5601 5596 5591 5593 5592 5616 5617 5618 5618 5615 5617 5616 5610 5603 5599 5595 5588 5587 5585 5581 5579 5577 5575 5574 5574 5575 5575 5577 5580 5580 5581 5581 5581 5581 5583 5583 5584 5584 5585 5587 5587 5589 5589 5589 5588 5588 5588
5592 5591 5586 5584 5583 5588 5583 5602 5618 5614 5611 5609 5612 5610 5607 5601 5595 5589 5586 5579 5576 5573 5569 5568 5566 5566 5566 5566 5567 5569 5570 5571 5572 5573 5573 5574 5574 5574 5575 5575 5576 5576 5576 5577 5579 5580 5581 5580 5579
5589 5579 5577 5572 5572 5570 5583 5575 5622 5602 5610 5614 5612 5609 5605 5599 5593 5584 5577 5572 5568 5562 5560 5559 5559 5558 5557 5557 5557 5558 5560 5562 5564 5566 5566 5566 5567 5565 5566 5565 5565 5566 5567 5567 5567 5568 5569 5570 5570
5567 5571 5565 5555 5558 5560 5588 5584 5612 5613 5615 5603 5597 5602 5596 5594 5590 5581 5571 5562 5556 5552 5551 5550 5550 5549 5548 5547 5547 5547 5549 5551 5554 5556 5557 5559 5559 5558 5557 5556 5556 5555 5556 5556 5557 5558 5559 5560 5561
5562 5569 5559 5551 5546 5571 5555 5560 5602 5597 5593 5588 5586 5588 5585 5584 5582 5572 5564 5556 5550 5546 5543 5541 5540 5538 5537 5537 5538 5539 5539 5542 5544 5546 5549 5550 5550 5550 5547 5545 5545 5545 5546 5547 5547 5548 5550 5551 5551
5561 5563 5560 5553 5555 5562 5544 5565 5593 5575 5571 5573 5573 5574 5573 5571 5570 5564 5558 5551 5544 5538 5534 5531 5529 5529 5527 5527 5527 5529 5529 5532 5533 5534 5535 5536 5538 5539 5538 5537 5535 5534 5535 5536 5537 5538 5538 5537 5536
5549 5544 5546 5536 5524 5534 5569 5571 5578 5564 5566 5560 5558 5557 5557 5555 5552 5547 5541 5538 5534 5529 5523 5521 5521 5520 5519 5518 5518 5520 5521 5522 5522 5523 5525 5525 5528 5530 5529 5528 5528 5528 5527 5526 5527 5527 5525 5523 5520
5539 5537 5532 5533 5527 5536 5553 5553 5568 5561 5560 5552 5546 5545 5542 5538 5534 5531 5529 5523 5518 5516 5513 5510 5510 5511 5510 5509 5509 5509 5511 5513 5514 5515 5516 5518 5518 5518 5519 5520 5521 5522 5521 5518 5515 5511 5510 5510 5508
5522 5525 5520 5525 5523 5531 5542 5555 5550 5546 5546 5541 5540 5535 5529 5526 5523 5520 5515 5509 5505 5500 5500 5501 5500 5500 5501 5500 5500 5500 5502 5503 5502 5504 5508 5508 5506 5508 5509 5510 5511 5511 5509 5506 5504 5503 5499 5495 5495
5513 5520 5521 5522 5518 5505 5512 5537 5538 5533 5532 5529 5530 5524 5519 5516 5511 5507 5502 5496 5493 5492 5490 5489 5489 5488 5488 5488 5490 5491 5492 5491 5491 5492 5495 5495 5495 5497 5498 5499 5501 5500 5498 5496 5494 5491 5490 5490 5488